Time,TemperatureF,DewpointF,PressureIn,WindDirection,WindDirectionDegrees,WindSpeedMPH,WindSpeedGustMPH,Humidity,HourlyPrecipIn,Conditions,Clouds,dailyrainin,SoftwareType,DateUTC
2013-05-17 00:04:00,71.6,49.1,29.73,ESE,113,3.1,4.3,45,0.00,,,0.00,WUHU216HW,2013-05-17 05:04:00,
2013-05-17 00:09:00,71.5,48.9,29.73,North,0,0.0,4.3,45,0.00,,,0.00,WUHU216HW,2013-05-17 05:09:00,
2013-05-17 00:14:00,71.5,49.5,29.72,North,0,0.0,3.1,46,0.00,,,0.00,WUHU216HW,2013-05-17 05:14:00,
2013-05-17 00:19:00,71.3,49.3,29.72,North,0,0.0,0.0,46,0.00,,,0.00,WUHU216HW,2013-05-17 05:19:00,
2013-05-17 00:24:00,71.3,48.7,29.72,North,0,0.0,0.0,45,0.00,,,0.00,WUHU216HW,2013-05-17 05:24:00,
2013-05-17 00:29:00,71.1,48.6,29.72,North,0,0.0,0.0,45,0.00,,,0.00,WUHU216HW,2013-05-17 05:29:00,
2013-05-17 00:34:00,70.9,48.4,29.72,North,0,0.0,0.0,45,0.00,,,0.00,WUHU216HW,2013-05-17 05:34:00,
2013-05-17 00:39:00,70.9,48.4,29.72,North,0,0.0,0.0,45,0.00,,,0.00,WUHU216HW,2013-05-17 05:39:00,
2013-05-17 00:44:00,70.7,48.9,29.72,North,0,0.0,0.0,46,0.00,,,0.00,WUHU216HW,2013-05-17 05:44:00,
2013-05-17 00:49:00,70.6,48.7,29.72,North,0,0.0,0.0,46,0.00,,,0.00,WUHU216HW,2013-05-17 05:49:00,
2013-05-17 00:54:00,70.2,48.3,29.72,North,0,0.0,0.0,46,0.00,,,0.00,WUHU216HW,2013-05-17 05:54:00,
2013-05-17 00:59:00,70.2,49.0,29.72,North,0,0.0,0.0,47,0.00,,,0.00,WUHU216HW,2013-05-17 05:59:00,
2013-05-17 01:04:00,70.0,48.8,29.72,North,0,0.0,0.0,47,0.00,,,0.00,WUHU216HW,2013-05-17 06:04:00,
2013-05-17 01:09:00,70.0,48.8,29.72,North,0,0.0,0.0,47,0.00,,,0.00,WUHU216HW,2013-05-17 06:09:00,
2013-05-17 01:14:00,70.0,48.8,29.72,North,0,0.0,0.0,47,0.00,,,0.00,WUHU216HW,2013-05-17 06:14:00,
2013-05-17 01:19:00,70.0,48.2,29.72,North,0,0.0,0.0,46,0.00,,,0.00,WUHU216HW,2013-05-17 06:19:00,
2013-05-17 01:24:00,70.0,48.8,29.73,North,0,0.0,0.0,47,0.00,,,0.00,WUHU216HW,2013-05-17 06:24:00,
2013-05-17 01:29:00,69.8,48.6,29.73,ESE,113,2.2,2.2,47,0.00,,,0.00,WUHU216HW,2013-05-17 06:29:00,
2013-05-17 01:34:00,69.7,49.1,29.74,ESE,113,4.5,4.9,48,0.00,,,0.00,WUHU216HW,2013-05-17 06:34:00,
2013-05-17 01:39:00,69.5,48.9,29.74,SE,135,1.3,4.9,48,0.00,,,0.00,WUHU216HW,2013-05-17 06:39:00,
2013-05-17 01:44:00,69.5,49.5,29.74,SSW,203,1.8,4.5,49,0.00,,,0.00,WUHU216HW,2013-05-17 06:44:00,
2013-05-17 01:48:00,69.5,49.5,29.74,East,90,4.7,5.1,49,0.00,,,0.00,WUHU216HW,2013-05-17 06:48:00,
2013-05-17 01:53:00,69.5,49.5,29.74,East,90,4.0,5.1,49,0.00,,,0.00,WUHU216HW,2013-05-17 06:53:00,
2013-05-17 01:58:00,69.5,50.0,29.74,ENE,68,2.2,4.0,50,0.00,,,0.00,WUHU216HW,2013-05-17 06:58:00,
2013-05-17 02:03:00,69.1,50.2,29.74,North,0,2.9,2.9,51,0.00,,,0.00,WUHU216HW,2013-05-17 07:03:00,
2013-05-17 02:08:00,68.6,50.2,29.73,North,0,1.8,2.9,52,0.00,,,0.00,WUHU216HW,2013-05-17 07:08:00,
2013-05-17 02:13:00,68.2,50.0,29.73,ENE,68,3.4,3.4,52,0.00,,,0.00,WUHU216HW,2013-05-17 07:13:00,
2013-05-17 02:18:00,68.0,51.2,29.73,NE,45,2.7,5.6,55,0.00,,,0.00,WUHU216HW,2013-05-17 07:18:00,
2013-05-17 02:23:00,67.7,51.8,29.73,ESE,113,2.2,5.6,57,0.00,,,0.00,WUHU216HW,2013-05-17 07:23:00,
2013-05-17 02:28:00,67.3,51.0,29.73,NE,45,4.0,5.8,56,0.00,,,0.00,WUHU216HW,2013-05-17 07:28:00,
2013-05-17 02:33:00,67.3,50.6,29.73,ENE,68,3.6,5.8,55,0.00,,,0.00,WUHU216HW,2013-05-17 07:33:00,
2013-05-17 02:38:00,67.1,50.4,29.73,NE,45,4.5,4.5,55,0.00,,,0.00,WUHU216HW,2013-05-17 07:38:00,
2013-05-17 02:43:00,67.0,51.2,29.74,East,90,1.8,4.5,57,0.00,,,0.00,WUHU216HW,2013-05-17 07:43:00,
2013-05-17 02:48:00,67.0,51.7,29.74,ENE,68,2.0,4.5,58,0.00,,,0.00,WUHU216HW,2013-05-17 07:48:00,
2013-05-17 02:53:00,67.0,50.8,29.75,NE,45,4.0,4.5,56,0.00,,,0.00,WUHU216HW,2013-05-17 07:53:00,
2013-05-17 02:58:00,66.8,51.0,29.75,SSW,203,3.6,4.0,57,0.00,,,0.00,WUHU216HW,2013-05-17 07:58:00,
2013-05-17 03:03:00,66.6,51.8,29.75,NE,45,3.6,4.0,59,0.00,,,0.00,WUHU216HW,2013-05-17 08:03:00,
2013-05-17 03:08:00,66.6,51.8,29.76,ENE,68,3.6,4.9,59,0.00,,,0.00,WUHU216HW,2013-05-17 08:08:00,
2013-05-17 03:13:00,66.4,51.2,29.76,East,90,2.5,4.9,58,0.00,,,0.00,WUHU216HW,2013-05-17 08:13:00,
2013-05-17 03:18:00,66.2,51.6,29.77,ENE,68,1.8,3.8,59,0.00,,,0.00,WUHU216HW,2013-05-17 08:18:00,
2013-05-17 03:23:00,66.1,52.3,29.77,NNE,23,2.7,2.7,61,0.00,,,0.00,WUHU216HW,2013-05-17 08:23:00,
2013-05-17 03:28:00,65.9,52.9,29.76,NE,45,2.2,4.9,63,0.00,,,0.00,WUHU216HW,2013-05-17 08:28:00,
2013-05-17 03:33:00,65.2,52.7,29.77,NE,45,3.4,6.3,64,0.00,,,0.00,WUHU216HW,2013-05-17 08:33:00,
2013-05-17 03:38:00,64.6,52.6,29.77,ESE,113,2.7,7.8,65,0.00,,,0.00,WUHU216HW,2013-05-17 08:38:00,
2013-05-17 03:43:00,64.1,52.9,29.77,SE,135,5.8,7.8,67,0.00,,,0.00,WUHU216HW,2013-05-17 08:43:00,
2013-05-17 03:48:00,63.5,52.8,29.78,ENE,68,6.3,6.3,68,0.00,,,0.00,WUHU216HW,2013-05-17 08:48:00,
2013-05-17 03:53:00,63.0,51.8,29.78,NNE,23,4.9,6.3,67,0.00,,,0.00,WUHU216HW,2013-05-17 08:53:00,
2013-05-17 03:58:00,62.6,51.9,29.79,ENE,68,3.8,7.6,68,0.00,,,0.00,WUHU216HW,2013-05-17 08:58:00,
2013-05-17 04:03:00,62.3,52.0,29.80,NE,45,3.8,7.6,69,0.00,,,0.00,WUHU216HW,2013-05-17 09:03:00,
2013-05-17 04:08:00,61.9,51.7,29.80,ENE,68,2.5,5.8,69,0.00,,,0.00,WUHU216HW,2013-05-17 09:08:00,
2013-05-17 04:13:00,61.6,51.4,29.81,East,90,4.7,8.5,69,0.00,,,0.00,WUHU216HW,2013-05-17 09:13:00,
2013-05-17 04:18:00,61.0,50.9,29.81,ESE,113,3.6,8.5,69,0.02,,,0.02,WUHU216HW,2013-05-17 09:18:00,
2013-05-17 04:23:00,60.5,51.5,29.80,East,90,6.3,8.3,72,0.02,,,0.02,WUHU216HW,2013-05-17 09:23:00,
2013-05-17 04:28:00,59.9,51.3,29.81,ENE,68,2.5,9.2,73,0.02,,,0.02,WUHU216HW,2013-05-17 09:28:00,
2013-05-17 04:33:00,59.4,51.1,29.81,ENE,68,4.7,10.1,74,0.02,,,0.02,WUHU216HW,2013-05-17 09:33:00,
2013-05-17 04:38:00,59.0,50.8,29.81,NE,45,5.1,10.1,74,0.02,,,0.02,WUHU216HW,2013-05-17 09:38:00,
2013-05-17 04:43:00,58.5,50.2,29.81,ENE,68,6.3,6.9,74,0.02,,,0.02,WUHU216HW,2013-05-17 09:43:00,
2013-05-17 04:48:00,58.0,50.4,29.82,East,90,7.8,8.7,76,0.02,,,0.02,WUHU216HW,2013-05-17 09:48:00,
2013-05-17 04:53:00,57.6,50.8,29.82,East,90,5.6,9.2,78,0.02,,,0.02,WUHU216HW,2013-05-17 09:53:00,
2013-05-17 04:58:00,57.2,50.4,29.82,NE,45,7.6,11.0,78,0.02,,,0.02,WUHU216HW,2013-05-17 09:58:00,
2013-05-17 05:03:00,56.9,50.0,29.83,SSE,158,2.9,11.0,78,0.03,,,0.03,WUHU216HW,2013-05-17 10:03:00,
2013-05-17 05:08:00,56.3,49.9,29.83,North,0,3.6,6.3,79,0.04,,,0.04,WUHU216HW,2013-05-17 10:08:00,
2013-05-17 05:13:00,56.0,50.2,29.83,East,90,5.8,5.8,81,0.05,,,0.05,WUHU216HW,2013-05-17 10:13:00,
2013-05-17 05:18:00,55.8,50.1,29.83,NE,45,3.6,5.8,81,0.03,,,0.05,WUHU216HW,2013-05-17 10:18:00,
2013-05-17 05:23:00,55.4,49.0,29.83,ESE,113,2.9,5.6,79,0.03,,,0.05,WUHU216HW,2013-05-17 10:23:00,
2013-05-17 05:28:00,55.4,49.7,29.84,ESE,113,3.4,9.4,81,0.05,,,0.07,WUHU216HW,2013-05-17 10:28:00,
2013-05-17 05:33:00,55.3,49.5,29.84,ESE,113,5.4,9.4,81,0.05,,,0.07,WUHU216HW,2013-05-17 10:33:00,
2013-05-17 05:38:00,55.1,49.0,29.85,ESE,113,6.9,9.8,80,0.07,,,0.09,WUHU216HW,2013-05-17 10:38:00,
2013-05-17 05:43:00,54.9,49.5,29.85,ESE,113,9.2,9.8,82,0.07,,,0.09,WUHU216HW,2013-05-17 10:43:00,
2013-05-17 05:48:00,54.7,49.6,29.85,ESE,113,7.6,9.6,83,0.07,,,0.09,WUHU216HW,2013-05-17 10:48:00,
2013-05-17 05:53:00,54.5,49.8,29.85,ENE,68,11.4,11.4,84,0.09,,,0.11,WUHU216HW,2013-05-17 10:53:00,
2013-05-17 05:58:00,54.4,49.6,29.84,East,90,8.3,11.4,84,0.09,,,0.11,WUHU216HW,2013-05-17 10:58:00,
2013-05-17 06:03:00,54.0,49.2,29.84,East,90,4.3,10.7,84,0.08,,,0.11,WUHU216HW,2013-05-17 11:03:00,
2013-05-17 06:08:00,53.8,49.4,29.84,ENE,68,9.8,9.8,85,0.07,,,0.11,WUHU216HW,2013-05-17 11:08:00,
2013-05-17 06:13:00,53.6,49.5,29.84,ENE,68,8.7,9.8,86,0.06,,,0.11,WUHU216HW,2013-05-17 11:13:00,
2013-05-17 06:18:00,53.5,49.3,29.84,North,0,0.0,8.7,86,0.06,,,0.11,WUHU216HW,2013-05-17 11:18:00,
2013-05-17 06:23:00,53.3,49.1,29.84,North,0,0.0,0.0,86,0.04,,,0.11,WUHU216HW,2013-05-17 11:23:00,
2013-05-17 06:28:00,53.3,49.1,29.84,North,0,0.0,0.0,86,0.04,,,0.11,WUHU216HW,2013-05-17 11:28:00,
2013-05-17 06:33:00,53.1,49.0,29.83,North,0,0.0,0.0,86,0.04,,,0.11,WUHU216HW,2013-05-17 11:33:00,
2013-05-17 06:38:00,52.9,48.5,29.82,North,0,0.0,0.0,85,0.02,,,0.11,WUHU216HW,2013-05-17 11:38:00,
2013-05-17 06:43:00,52.6,48.4,29.81,North,0,0.0,0.0,86,0.02,,,0.11,WUHU216HW,2013-05-17 11:43:00,
2013-05-17 06:48:00,52.4,48.2,29.82,North,0,0.0,0.0,86,0.04,,,0.13,WUHU216HW,2013-05-17 11:48:00,
2013-05-17 06:53:00,52.2,48.1,29.82,North,0,0.0,0.0,86,0.02,,,0.13,WUHU216HW,2013-05-17 11:53:00,
2013-05-17 06:58:00,52.2,48.1,29.82,North,0,0.0,0.0,86,0.02,,,0.13,WUHU216HW,2013-05-17 11:58:00,
2013-05-17 07:03:00,52.0,47.9,29.82,North,0,0.0,0.0,86,0.03,,,0.14,WUHU216HW,2013-05-17 12:03:00,
2013-05-17 07:08:00,52.0,47.9,29.82,North,0,0.0,0.0,86,0.03,,,0.14,WUHU216HW,2013-05-17 12:08:00,
2013-05-17 07:13:00,52.2,48.1,29.82,North,0,0.0,0.0,86,0.03,,,0.14,WUHU216HW,2013-05-17 12:13:00,
2013-05-17 07:18:00,52.2,48.1,29.82,North,0,0.0,0.0,86,0.03,,,0.14,WUHU216HW,2013-05-17 12:18:00,
2013-05-17 07:23:00,52.2,48.4,29.81,North,0,0.0,0.0,87,0.03,,,0.14,WUHU216HW,2013-05-17 12:23:00,
2013-05-17 07:28:00,52.2,48.4,29.81,North,0,0.0,0.0,87,0.03,,,0.14,WUHU216HW,2013-05-17 12:28:00,
2013-05-17 07:33:00,52.0,48.5,29.81,North,0,0.0,0.0,88,0.03,,,0.14,WUHU216HW,2013-05-17 12:33:00,
2013-05-17 07:38:00,52.0,48.3,29.81,North,0,0.0,0.0,87,0.03,,,0.14,WUHU216HW,2013-05-17 12:38:00,
2013-05-17 07:43:00,52.2,48.4,29.81,North,0,0.0,0.0,87,0.03,,,0.14,WUHU216HW,2013-05-17 12:43:00,
2013-05-17 07:48:00,52.2,48.1,29.81,North,0,0.0,0.0,86,0.01,,,0.14,WUHU216HW,2013-05-17 12:48:00,
2013-05-17 07:53:00,52.0,47.9,29.81,North,0,0.0,0.0,86,0.01,,,0.14,WUHU216HW,2013-05-17 12:53:00,
2013-05-17 07:58:00,52.0,47.9,29.82,North,0,0.0,0.0,86,0.01,,,0.14,WUHU216HW,2013-05-17 12:58:00,
2013-05-17 08:03:00,52.0,48.3,29.82,North,0,0.0,0.0,87,0.00,,,0.14,WUHU216HW,2013-05-17 13:03:00,
2013-05-17 08:08:00,52.0,47.9,29.83,North,0,0.0,0.0,86,0.00,,,0.14,WUHU216HW,2013-05-17 13:08:00,
2013-05-17 08:13:00,52.0,48.3,29.82,North,0,0.0,0.0,87,0.00,,,0.14,WUHU216HW,2013-05-17 13:13:00,
2013-05-17 08:18:00,51.7,47.9,29.82,North,0,0.0,0.0,87,0.00,,,0.14,WUHU216HW,2013-05-17 13:18:00,
2013-05-17 08:23:00,51.7,47.9,29.82,North,0,0.0,0.0,87,0.00,,,0.14,WUHU216HW,2013-05-17 13:23:00,
2013-05-17 08:28:00,51.5,48.0,29.82,North,0,0.0,0.0,88,0.02,,,0.16,WUHU216HW,2013-05-17 13:28:00,
2013-05-17 08:33:00,51.5,48.0,29.82,North,0,0.0,0.0,88,0.02,,,0.16,WUHU216HW,2013-05-17 13:33:00,
2013-05-17 08:38:00,51.5,48.0,29.83,North,0,0.0,0.0,88,0.02,,,0.16,WUHU216HW,2013-05-17 13:38:00,
2013-05-17 08:43:00,51.5,48.0,29.83,North,0,0.0,0.0,88,0.02,,,0.16,WUHU216HW,2013-05-17 13:43:00,
2013-05-17 08:48:00,51.7,48.5,29.83,North,0,0.0,0.0,89,0.02,,,0.16,WUHU216HW,2013-05-17 13:48:00,
2013-05-17 08:53:00,51.8,48.3,29.83,North,0,0.0,0.0,88,0.02,,,0.16,WUHU216HW,2013-05-17 13:53:00,
2013-05-17 08:58:00,51.8,48.7,29.83,North,0,0.0,0.0,89,0.02,,,0.16,WUHU216HW,2013-05-17 13:58:00,
2013-05-17 09:03:00,51.8,48.7,29.83,North,0,0.0,0.0,89,0.02,,,0.16,WUHU216HW,2013-05-17 14:03:00,
2013-05-17 09:08:00,52.0,48.9,29.83,North,0,0.0,0.0,89,0.02,,,0.16,WUHU216HW,2013-05-17 14:08:00,
2013-05-17 09:13:00,52.2,49.1,29.83,North,0,0.0,0.0,89,0.02,,,0.16,WUHU216HW,2013-05-17 14:13:00,
2013-05-17 09:18:00,52.2,49.1,29.83,North,0,0.0,0.0,89,0.02,,,0.16,WUHU216HW,2013-05-17 14:18:00,
2013-05-17 09:23:00,52.2,49.1,29.82,North,0,0.0,0.0,89,0.02,,,0.16,WUHU216HW,2013-05-17 14:23:00,
2013-05-17 09:28:00,52.2,49.1,29.81,North,0,0.0,0.0,89,0.00,,,0.16,WUHU216HW,2013-05-17 14:28:00,
2013-05-17 09:33:00,52.2,49.1,29.81,North,0,0.0,0.0,89,0.00,,,0.16,WUHU216HW,2013-05-17 14:33:00,
2013-05-17 09:38:00,52.4,49.2,29.81,North,0,0.0,0.0,89,0.02,,,0.18,WUHU216HW,2013-05-17 14:38:00,
2013-05-17 09:43:00,52.7,49.9,29.81,North,0,0.0,0.0,90,0.02,,,0.18,WUHU216HW,2013-05-17 14:43:00,
2013-05-17 09:48:00,52.9,50.0,29.81,North,0,0.0,0.0,90,0.02,,,0.18,WUHU216HW,2013-05-17 14:48:00,
2013-05-17 09:53:00,52.9,50.3,29.81,North,0,0.0,0.0,91,0.02,,,0.18,WUHU216HW,2013-05-17 14:53:00,
2013-05-17 09:58:00,53.3,50.4,29.81,North,0,0.0,0.0,90,0.02,,,0.18,WUHU216HW,2013-05-17 14:58:00,
2013-05-17 10:03:00,53.3,50.4,29.81,North,0,0.0,0.0,90,0.02,,,0.18,WUHU216HW,2013-05-17 15:03:00,
2013-05-17 10:08:00,53.6,51.0,29.81,North,0,0.0,0.0,91,0.02,,,0.18,WUHU216HW,2013-05-17 15:08:00,
2013-05-17 10:13:00,53.8,51.2,29.81,North,0,0.0,0.0,91,0.02,,,0.18,WUHU216HW,2013-05-17 15:13:00,
2013-05-17 10:18:00,54.0,51.1,29.81,North,0,0.0,0.0,90,0.02,,,0.18,WUHU216HW,2013-05-17 15:18:00,
2013-05-17 10:23:00,54.2,51.0,29.81,North,0,0.0,0.0,89,0.02,,,0.18,WUHU216HW,2013-05-17 15:23:00,
2013-05-17 10:28:00,54.2,51.0,29.81,North,0,0.0,0.0,89,0.02,,,0.18,WUHU216HW,2013-05-17 15:28:00,
2013-05-17 10:33:00,54.4,51.2,29.81,North,0,0.0,0.0,89,0.02,,,0.18,WUHU216HW,2013-05-17 15:33:00,
2013-05-17 10:38:00,54.4,51.2,29.82,North,0,0.0,0.0,89,0.00,,,0.18,WUHU216HW,2013-05-17 15:38:00,
2013-05-17 10:43:00,54.4,51.2,29.81,North,0,0.0,0.0,89,0.02,,,0.20,WUHU216HW,2013-05-17 15:43:00,
2013-05-17 10:48:00,54.4,51.2,29.81,North,0,0.0,0.0,89,0.02,,,0.20,WUHU216HW,2013-05-17 15:48:00,
2013-05-17 10:53:00,54.4,51.2,29.81,North,0,0.0,0.0,89,0.02,,,0.20,WUHU216HW,2013-05-17 15:53:00,
2013-05-17 10:58:00,54.4,51.5,29.82,North,0,0.0,0.0,90,0.02,,,0.20,WUHU216HW,2013-05-17 15:58:00,
2013-05-17 11:03:00,54.4,51.5,29.82,North,0,0.0,0.0,90,0.02,,,0.20,WUHU216HW,2013-05-17 16:03:00,
2013-05-17 11:08:00,54.2,51.3,29.83,North,0,0.0,0.0,90,0.03,,,0.21,WUHU216HW,2013-05-17 16:08:00,
2013-05-17 11:13:00,54.2,51.3,29.83,North,0,0.0,0.0,90,0.04,,,0.22,WUHU216HW,2013-05-17 16:13:00,
2013-05-17 11:18:00,54.0,51.1,29.84,North,0,0.0,0.0,90,0.04,,,0.22,WUHU216HW,2013-05-17 16:18:00,
2013-05-17 11:23:00,54.0,50.9,29.85,North,0,0.0,0.0,89,0.04,,,0.22,WUHU216HW,2013-05-17 16:23:00,
2013-05-17 11:28:00,54.0,51.1,29.86,North,0,0.0,0.0,90,0.06,,,0.24,WUHU216HW,2013-05-17 16:28:00,
2013-05-17 11:33:00,53.8,50.9,29.84,North,0,0.0,0.0,90,0.09,,,0.27,WUHU216HW,2013-05-17 16:33:00,
2013-05-17 11:38:00,53.8,50.9,29.84,North,0,0.0,0.0,90,0.08,,,0.28,WUHU216HW,2013-05-17 16:38:00,
2013-05-17 11:43:00,53.5,50.9,29.85,North,0,0.0,0.0,91,0.12,,,0.32,WUHU216HW,2013-05-17 16:43:00,
2013-05-17 11:48:00,53.5,50.9,29.86,North,0,0.0,0.0,91,0.13,,,0.33,WUHU216HW,2013-05-17 16:48:00,
2013-05-17 11:53:00,53.5,50.9,29.85,North,0,0.0,0.0,91,0.14,,,0.34,WUHU216HW,2013-05-17 16:53:00,
2013-05-17 11:58:00,53.5,50.9,29.85,North,0,0.0,0.0,91,0.15,,,0.35,WUHU216HW,2013-05-17 16:58:00,
2013-05-17 12:03:00,53.5,51.1,29.85,North,0,0.0,0.0,92,0.15,,,0.35,WUHU216HW,2013-05-17 17:03:00,
2013-05-17 12:08:00,53.5,51.1,29.85,North,0,0.0,0.0,92,0.15,,,0.36,WUHU216HW,2013-05-17 17:08:00,
2013-05-17 12:13:00,53.5,51.1,29.85,North,0,0.0,0.0,92,0.14,,,0.36,WUHU216HW,2013-05-17 17:13:00,
2013-05-17 12:18:00,53.5,51.1,29.84,North,0,0.0,0.0,92,0.14,,,0.36,WUHU216HW,2013-05-17 17:18:00,
2013-05-17 12:23:00,53.5,51.1,29.84,North,0,0.0,0.0,92,0.15,,,0.37,WUHU216HW,2013-05-17 17:23:00,
2013-05-17 12:28:00,53.5,51.1,29.84,North,0,0.0,0.0,92,0.12,,,0.37,WUHU216HW,2013-05-17 17:28:00,
2013-05-17 12:33:00,53.5,51.1,29.84,North,0,0.0,0.0,92,0.11,,,0.38,WUHU216HW,2013-05-17 17:33:00,
2013-05-17 12:38:00,53.5,51.5,29.83,North,0,0.0,0.0,93,0.09,,,0.38,WUHU216HW,2013-05-17 17:38:00,
2013-05-17 12:43:00,54.0,52.0,29.83,North,0,0.0,0.0,93,0.06,,,0.38,WUHU216HW,2013-05-17 17:43:00,
2013-05-17 12:48:00,54.2,52.2,29.83,North,0,0.0,0.0,93,0.06,,,0.39,WUHU216HW,2013-05-17 17:48:00,
2013-05-17 12:53:00,54.4,52.0,29.83,North,0,0.0,0.0,92,0.05,,,0.39,WUHU216HW,2013-05-17 17:53:00,
2013-05-17 12:58:00,54.4,52.0,29.83,North,0,0.0,0.0,92,0.04,,,0.39,WUHU216HW,2013-05-17 17:58:00,
2013-05-17 13:03:00,54.5,52.2,29.83,North,0,0.0,0.0,92,0.04,,,0.40,WUHU216HW,2013-05-17 18:03:00,
2013-05-17 13:08:00,54.5,51.9,29.83,North,0,0.0,0.0,91,0.04,,,0.40,WUHU216HW,2013-05-17 18:08:00,
2013-05-17 13:13:00,54.9,52.3,29.83,North,0,0.0,0.0,91,0.04,,,0.40,WUHU216HW,2013-05-17 18:13:00,
2013-05-17 13:18:00,55.1,52.5,29.83,North,0,0.0,0.0,91,0.03,,,0.40,WUHU216HW,2013-05-17 18:18:00,
2013-05-17 13:23:00,55.3,52.7,29.83,North,0,0.0,0.0,91,0.03,,,0.40,WUHU216HW,2013-05-17 18:23:00,
2013-05-17 13:28:00,55.4,52.8,29.83,North,0,0.0,0.0,91,0.03,,,0.40,WUHU216HW,2013-05-17 18:28:00,
2013-05-17 13:33:00,55.8,52.9,29.83,North,0,0.0,0.0,90,0.02,,,0.40,WUHU216HW,2013-05-17 18:33:00,
2013-05-17 13:38:00,56.0,53.1,29.83,North,0,0.0,0.0,90,0.02,,,0.40,WUHU216HW,2013-05-17 18:38:00,
2013-05-17 13:43:00,56.0,52.7,29.82,North,0,0.0,0.0,89,0.02,,,0.40,WUHU216HW,2013-05-17 18:43:00,
2013-05-17 13:48:00,56.5,53.3,29.83,North,0,0.0,0.0,89,0.01,,,0.40,WUHU216HW,2013-05-17 18:48:00,
2013-05-17 13:53:00,56.7,53.5,29.83,North,0,0.0,0.0,89,0.01,,,0.40,WUHU216HW,2013-05-17 18:53:00,
2013-05-17 13:58:00,57.1,53.8,29.83,North,0,0.0,0.0,89,0.01,,,0.40,WUHU216HW,2013-05-17 18:58:00,
2013-05-17 14:03:00,57.2,54.0,29.83,North,0,0.0,0.0,89,0.00,,,0.40,WUHU216HW,2013-05-17 19:03:00,
2013-05-17 14:08:00,57.4,53.9,29.83,North,0,0.0,0.0,88,0.00,,,0.40,WUHU216HW,2013-05-17 19:08:00,
2013-05-17 14:13:00,57.4,53.9,29.83,North,0,0.0,0.0,88,0.00,,,0.40,WUHU216HW,2013-05-17 19:13:00,
2013-05-17 14:18:00,57.4,53.9,29.83,North,0,0.0,0.0,88,0.01,,,0.41,WUHU216HW,2013-05-17 19:18:00,
2013-05-17 14:23:00,57.6,54.1,29.83,North,0,0.0,0.0,88,0.01,,,0.41,WUHU216HW,2013-05-17 19:23:00,
2013-05-17 14:28:00,57.6,54.1,29.84,North,0,0.0,0.0,88,0.01,,,0.41,WUHU216HW,2013-05-17 19:28:00,
2013-05-17 14:33:00,57.6,54.1,29.84,North,0,0.0,0.0,88,0.01,,,0.41,WUHU216HW,2013-05-17 19:33:00,
2013-05-17 14:38:00,57.4,53.9,29.83,North,0,0.0,0.0,88,0.01,,,0.41,WUHU216HW,2013-05-17 19:38:00,
2013-05-17 14:43:00,57.6,54.1,29.84,North,0,0.0,0.0,88,0.01,,,0.41,WUHU216HW,2013-05-17 19:43:00,
2013-05-17 14:48:00,57.6,54.1,29.84,North,0,0.0,0.0,88,0.01,,,0.41,WUHU216HW,2013-05-17 19:48:00,
2013-05-17 14:53:00,57.6,54.1,29.84,North,0,0.0,0.0,88,0.01,,,0.41,WUHU216HW,2013-05-17 19:53:00,
2013-05-17 14:58:00,57.8,54.3,29.84,North,0,0.0,0.0,88,0.01,,,0.41,WUHU216HW,2013-05-17 19:58:00,
2013-05-17 15:03:00,57.8,54.3,29.84,North,0,0.0,0.0,88,0.01,,,0.41,WUHU216HW,2013-05-17 20:03:00,
2013-05-17 15:08:00,57.8,54.3,29.84,North,0,0.0,0.0,88,0.01,,,0.41,WUHU216HW,2013-05-17 20:08:00,
2013-05-17 15:13:00,58.0,54.5,29.83,North,0,0.0,0.0,88,0.01,,,0.41,WUHU216HW,2013-05-17 20:13:00,
2013-05-17 15:18:00,58.1,54.9,29.83,North,0,0.0,0.0,89,0.01,,,0.42,WUHU216HW,2013-05-17 20:18:00,
2013-05-17 15:23:00,58.1,54.6,29.83,North,0,0.0,0.0,88,0.01,,,0.42,WUHU216HW,2013-05-17 20:23:00,
2013-05-17 15:28:00,58.1,54.6,29.83,North,0,0.0,0.0,88,0.01,,,0.42,WUHU216HW,2013-05-17 20:28:00,
2013-05-17 15:33:00,58.3,55.4,29.82,North,0,0.0,0.0,90,0.01,,,0.42,WUHU216HW,2013-05-17 20:33:00,
2013-05-17 15:38:00,58.3,55.4,29.83,North,0,0.0,0.0,90,0.01,,,0.42,WUHU216HW,2013-05-17 20:38:00,
2013-05-17 15:43:00,58.3,55.4,29.82,North,0,0.0,0.0,90,0.02,,,0.43,WUHU216HW,2013-05-17 20:43:00,
2013-05-17 15:48:00,58.5,55.6,29.82,North,0,0.0,0.0,90,0.02,,,0.43,WUHU216HW,2013-05-17 20:48:00,
2013-05-17 15:53:00,58.7,55.8,29.82,North,0,0.0,0.0,90,0.02,,,0.43,WUHU216HW,2013-05-17 20:53:00,
2013-05-17 15:58:00,58.5,55.3,29.82,North,0,0.0,0.0,89,0.02,,,0.43,WUHU216HW,2013-05-17 20:58:00,
2013-05-17 16:03:00,58.7,55.4,29.81,North,0,0.0,0.0,89,0.02,,,0.43,WUHU216HW,2013-05-17 21:03:00,
2013-05-17 16:08:00,58.9,55.6,29.81,North,0,0.0,0.0,89,0.02,,,0.43,WUHU216HW,2013-05-17 21:08:00,
2013-05-17 16:13:00,59.0,55.8,29.81,North,0,0.0,0.0,89,0.02,,,0.43,WUHU216HW,2013-05-17 21:13:00,
2013-05-17 16:18:00,59.2,56.0,29.81,North,0,0.0,0.0,89,0.01,,,0.43,WUHU216HW,2013-05-17 21:18:00,
2013-05-17 16:23:00,59.4,56.5,29.81,North,0,0.0,0.0,90,0.01,,,0.43,WUHU216HW,2013-05-17 21:23:00,
2013-05-17 16:28:00,59.6,56.3,29.81,North,0,0.0,0.0,89,0.01,,,0.43,WUHU216HW,2013-05-17 21:28:00,
2013-05-17 16:33:00,59.6,56.3,29.81,North,0,0.0,0.0,89,0.01,,,0.43,WUHU216HW,2013-05-17 21:33:00,
2013-05-17 16:38:00,59.8,55.9,29.81,North,0,0.0,0.0,87,0.01,,,0.43,WUHU216HW,2013-05-17 21:38:00,
2013-05-17 16:43:00,59.8,55.9,29.81,North,0,0.0,0.0,87,0.00,,,0.43,WUHU216HW,2013-05-17 21:43:00,
2013-05-17 16:48:00,59.8,55.9,29.81,North,0,0.0,0.0,87,0.00,,,0.43,WUHU216HW,2013-05-17 21:48:00,
2013-05-17 16:53:00,59.6,55.7,29.81,North,0,0.0,0.0,87,0.00,,,0.43,WUHU216HW,2013-05-17 21:53:00,
2013-05-17 16:58:00,59.4,55.9,29.81,North,0,0.0,0.0,88,0.00,,,0.43,WUHU216HW,2013-05-17 21:58:00,
2013-05-17 17:03:00,59.4,55.9,29.81,North,0,0.0,0.0,88,0.00,,,0.43,WUHU216HW,2013-05-17 22:03:00,
2013-05-17 17:08:00,59.4,56.2,29.81,North,0,0.0,0.0,89,0.00,,,0.43,WUHU216HW,2013-05-17 22:08:00,
2013-05-17 17:13:00,60.1,56.9,29.81,North,0,0.0,0.0,89,0.00,,,0.43,WUHU216HW,2013-05-17 22:13:00,
2013-05-17 17:18:00,60.8,57.6,29.81,North,0,0.0,0.0,89,0.00,,,0.43,WUHU216HW,2013-05-17 22:18:00,
2013-05-17 17:23:00,61.6,58.1,29.81,North,0,0.0,0.0,88,0.00,,,0.43,WUHU216HW,2013-05-17 22:23:00,
2013-05-17 17:28:00,61.9,58.1,29.80,North,0,0.0,0.0,87,0.00,,,0.43,WUHU216HW,2013-05-17 22:28:00,
2013-05-17 17:33:00,62.8,58.6,29.80,North,0,0.0,0.0,86,0.00,,,0.43,WUHU216HW,2013-05-17 22:33:00,
2013-05-17 17:38:00,63.4,58.8,29.80,North,0,0.0,0.0,85,0.00,,,0.43,WUHU216HW,2013-05-17 22:38:00,
2013-05-17 17:43:00,63.7,58.2,29.80,NW,315,6.0,6.0,82,0.00,,,0.43,WUHU216HW,2013-05-17 22:43:00,
2013-05-17 17:48:00,64.6,59.3,29.80,NE,45,3.6,6.0,83,0.00,,,0.43,WUHU216HW,2013-05-17 22:48:00,
2013-05-17 17:53:00,64.8,59.2,29.80,NNE,23,2.5,6.0,82,0.00,,,0.43,WUHU216HW,2013-05-17 22:53:00,
2013-05-17 17:58:00,64.4,58.9,29.80,NE,45,6.0,6.0,82,0.00,,,0.43,WUHU216HW,2013-05-17 22:58:00,
2013-05-17 18:03:00,64.1,58.2,29.80,NNE,23,6.3,7.4,81,0.00,,,0.43,WUHU216HW,2013-05-17 23:03:00,
2013-05-17 18:08:00,63.7,57.8,29.80,North,0,0.0,7.4,81,0.00,,,0.43,WUHU216HW,2013-05-17 23:08:00,
2013-05-17 18:13:00,63.4,57.8,29.80,ENE,68,3.1,6.3,82,0.00,,,0.43,WUHU216HW,2013-05-17 23:13:00,
2013-05-17 18:18:00,63.0,57.4,29.80,ENE,68,2.9,3.6,82,0.00,,,0.43,WUHU216HW,2013-05-17 23:18:00,
2013-05-17 18:23:00,62.6,57.3,29.80,SW,225,2.5,3.6,83,0.00,,,0.43,WUHU216HW,2013-05-17 23:23:00,
2013-05-17 18:28:00,62.1,57.3,29.80,ENE,68,4.0,4.0,84,0.00,,,0.43,WUHU216HW,2013-05-17 23:28:00,
2013-05-17 18:33:00,62.1,57.3,29.80,NE,45,4.7,4.7,84,0.00,,,0.43,WUHU216HW,2013-05-17 23:33:00,
2013-05-17 18:38:00,61.7,56.9,29.80,East,90,4.5,7.4,84,0.00,,,0.43,WUHU216HW,2013-05-17 23:38:00,
2013-05-17 18:43:00,61.7,56.9,29.80,NE,45,4.5,9.2,84,0.00,,,0.43,WUHU216HW,2013-05-17 23:43:00,
2013-05-17 18:48:00,61.4,56.9,29.80,NNE,23,4.0,9.2,85,0.00,,,0.43,WUHU216HW,2013-05-17 23:48:00,
2013-05-17 18:53:00,61.4,56.9,29.80,NE,45,3.8,6.9,85,0.00,,,0.43,WUHU216HW,2013-05-17 23:53:00,
2013-05-17 18:58:00,61.2,56.7,29.80,East,90,2.5,5.4,85,0.00,,,0.43,WUHU216HW,2013-05-17 23:58:00,
2013-05-17 19:03:00,61.2,56.7,29.80,NNE,23,6.7,6.7,85,0.00,,,0.43,WUHU216HW,2013-05-18 00:03:00,
2013-05-17 19:08:00,61.2,56.7,29.80,NNE,23,2.0,6.7,85,0.00,,,0.43,WUHU216HW,2013-05-18 00:08:00,
2013-05-17 19:13:00,61.2,56.7,29.80,ESE,113,5.8,6.9,85,0.00,,,0.43,WUHU216HW,2013-05-18 00:13:00,
2013-05-17 19:18:00,61.2,56.7,29.80,NNE,23,3.6,6.9,85,0.00,,,0.43,WUHU216HW,2013-05-18 00:18:00,
2013-05-17 19:23:00,61.2,56.7,29.80,NE,45,4.7,8.5,85,0.00,,,0.43,WUHU216HW,2013-05-18 00:23:00,
2013-05-17 19:28:00,61.2,57.0,29.80,East,90,2.2,8.5,86,0.00,,,0.43,WUHU216HW,2013-05-18 00:28:00,
2013-05-17 19:33:00,61.0,56.9,29.80,ESE,113,4.7,5.4,86,0.00,,,0.43,WUHU216HW,2013-05-18 00:33:00,
2013-05-17 19:38:00,61.0,56.9,29.80,East,90,5.1,5.1,86,0.00,,,0.43,WUHU216HW,2013-05-18 00:38:00,
2013-05-17 19:43:00,61.2,57.0,29.80,ENE,68,3.4,5.1,86,0.00,,,0.43,WUHU216HW,2013-05-18 00:43:00,
2013-05-17 19:48:00,61.2,57.0,29.80,ESE,113,4.9,4.9,86,0.00,,,0.43,WUHU216HW,2013-05-18 00:48:00,
2013-05-17 19:53:00,61.2,57.0,29.80,NNE,23,4.0,4.9,86,0.00,,,0.43,WUHU216HW,2013-05-18 00:53:00,
2013-05-17 19:58:00,61.0,56.9,29.80,East,90,4.3,4.7,86,0.00,,,0.43,WUHU216HW,2013-05-18 00:58:00,
2013-05-17 20:03:00,61.0,56.9,29.80,NE,45,2.2,4.7,86,0.00,,,0.43,WUHU216HW,2013-05-18 01:03:00,
2013-05-17 20:08:00,61.0,56.9,29.80,East,90,2.9,4.3,86,0.00,,,0.43,WUHU216HW,2013-05-18 01:08:00,
2013-05-17 20:13:00,61.0,56.9,29.80,ESE,113,5.1,5.1,86,0.00,,,0.43,WUHU216HW,2013-05-18 01:13:00,
2013-05-17 20:18:00,60.8,56.7,29.79,ENE,68,3.1,5.1,86,0.00,,,0.43,WUHU216HW,2013-05-18 01:18:00,
2013-05-17 20:23:00,60.8,57.0,29.80,NE,45,1.8,5.1,87,0.00,,,0.43,WUHU216HW,2013-05-18 01:23:00,
2013-05-17 20:28:00,60.7,56.8,29.80,ENE,68,4.7,4.7,87,0.00,,,0.43,WUHU216HW,2013-05-18 01:28:00,
2013-05-17 20:33:00,60.5,56.6,29.80,NE,45,6.9,6.9,87,0.00,,,0.43,WUHU216HW,2013-05-18 01:33:00,
2013-05-17 20:38:00,60.5,56.6,29.80,ENE,68,1.8,6.9,87,0.00,,,0.43,WUHU216HW,2013-05-18 01:38:00,
2013-05-17 20:43:00,60.5,57.0,29.80,ENE,68,4.3,8.1,88,0.00,,,0.43,WUHU216HW,2013-05-18 01:43:00,
2013-05-17 20:48:00,60.3,56.8,29.80,ENE,68,4.3,8.1,88,0.00,,,0.43,WUHU216HW,2013-05-18 01:48:00,
2013-05-17 20:53:00,60.3,56.8,29.80,East,90,1.6,6.7,88,0.00,,,0.43,WUHU216HW,2013-05-18 01:53:00,
2013-05-17 20:58:00,60.3,56.8,29.80,East,90,5.4,6.7,88,0.00,,,0.43,WUHU216HW,2013-05-18 01:58:00,
2013-05-17 21:03:00,60.1,56.6,29.80,NNE,23,6.3,6.3,88,0.00,,,0.43,WUHU216HW,2013-05-18 02:03:00,
2013-05-17 21:08:00,60.1,56.6,29.80,ESE,113,2.5,6.3,88,0.00,,,0.43,WUHU216HW,2013-05-18 02:08:00,
2013-05-17 21:13:00,59.9,56.4,29.80,NE,45,2.0,5.4,88,0.00,,,0.43,WUHU216HW,2013-05-18 02:13:00,
2013-05-17 21:18:00,59.9,56.7,29.80,East,90,6.9,6.9,89,0.00,,,0.43,WUHU216HW,2013-05-18 02:18:00,
2013-05-17 21:23:00,59.8,56.5,29.80,East,90,1.6,6.9,89,0.00,,,0.43,WUHU216HW,2013-05-18 02:23:00,
2013-05-17 21:28:00,59.6,56.3,29.81,ESE,113,1.6,2.7,89,0.00,,,0.43,WUHU216HW,2013-05-18 02:28:00,
2013-05-17 21:33:00,59.4,56.2,29.81,SSE,158,1.3,4.3,89,0.00,,,0.43,WUHU216HW,2013-05-18 02:33:00,
2013-05-17 21:38:00,59.4,56.2,29.81,NE,45,2.2,4.3,89,0.00,,,0.43,WUHU216HW,2013-05-18 02:38:00,
2013-05-17 21:43:00,59.2,56.3,29.81,NNE,23,2.5,6.9,90,0.00,,,0.43,WUHU216HW,2013-05-18 02:43:00,
2013-05-17 21:48:00,59.2,56.3,29.81,ENE,68,4.0,6.9,90,0.00,,,0.43,WUHU216HW,2013-05-18 02:48:00,
2013-05-17 21:53:00,59.2,56.3,29.81,NE,45,5.4,5.6,90,0.00,,,0.43,WUHU216HW,2013-05-18 02:53:00,
2013-05-17 21:58:00,59.0,56.2,29.81,ENE,68,3.4,5.4,90,0.00,,,0.43,WUHU216HW,2013-05-18 02:58:00,
2013-05-17 22:03:00,59.0,56.2,29.81,SW,225,2.0,4.9,90,0.00,,,0.43,WUHU216HW,2013-05-18 03:03:00,
2013-05-17 22:08:00,59.0,56.2,29.81,ENE,68,2.9,4.9,90,0.00,,,0.43,WUHU216HW,2013-05-18 03:08:00,
2013-05-17 22:13:00,59.0,56.2,29.82,NNE,23,5.4,5.4,90,0.00,,,0.43,WUHU216HW,2013-05-18 03:13:00,
2013-05-17 22:18:00,58.9,55.6,29.82,ENE,68,4.5,5.4,89,0.00,,,0.43,WUHU216HW,2013-05-18 03:18:00,
2013-05-17 22:23:00,58.9,55.6,29.82,NNE,23,3.4,5.4,89,0.00,,,0.43,WUHU216HW,2013-05-18 03:23:00,
2013-05-17 22:28:00,58.7,55.4,29.82,East,90,3.8,5.1,89,0.00,,,0.43,WUHU216HW,2013-05-18 03:28:00,
2013-05-17 22:33:00,58.7,55.4,29.82,ENE,68,3.8,5.1,89,0.00,,,0.43,WUHU216HW,2013-05-18 03:33:00,
2013-05-17 22:38:00,58.7,55.4,29.83,NE,45,3.1,5.1,89,0.00,,,0.43,WUHU216HW,2013-05-18 03:38:00,
2013-05-17 22:43:00,58.5,55.3,29.83,East,90,2.7,5.6,89,0.00,,,0.43,WUHU216HW,2013-05-18 03:43:00,
2013-05-17 22:48:00,58.5,55.3,29.83,NE,45,3.4,5.8,89,0.00,,,0.43,WUHU216HW,2013-05-18 03:48:00,
2013-05-17 22:53:00,58.3,55.1,29.83,ESE,113,4.7,5.8,89,0.00,,,0.43,WUHU216HW,2013-05-18 03:53:00,
2013-05-17 22:58:00,58.3,55.1,29.83,East,90,2.7,5.4,89,0.00,,,0.43,WUHU216HW,2013-05-18 03:58:00,
2013-05-17 23:01:00,58.3,55.1,29.82,ESE,113,4.9,5.4,89,0.00,,,0.43,WUHU216HW,2013-05-18 04:01:00,
2013-05-17 23:06:00,58.1,54.9,29.83,ENE,68,6.3,6.3,89,0.00,,,0.43,WUHU216HW,2013-05-18 04:06:00,
2013-05-17 23:11:00,58.1,54.6,29.83,ESE,113,4.5,6.3,88,0.00,,,0.43,WUHU216HW,2013-05-18 04:11:00,
2013-05-17 23:16:00,58.0,54.5,29.83,ENE,68,1.8,4.7,88,0.00,,,0.43,WUHU216HW,2013-05-18 04:16:00,
2013-05-17 23:21:00,58.0,54.5,29.83,NE,45,3.4,4.5,88,0.00,,,0.43,WUHU216HW,2013-05-18 04:21:00,
2013-05-17 23:26:00,58.0,54.5,29.83,East,90,2.2,3.4,88,0.00,,,0.43,WUHU216HW,2013-05-18 04:26:00,
2013-05-17 23:31:00,58.0,54.5,29.83,East,90,2.7,3.4,88,0.00,,,0.43,WUHU216HW,2013-05-18 04:31:00,
2013-05-17 23:36:00,58.0,54.7,29.83,ESE,113,4.7,6.0,89,0.00,,,0.43,WUHU216HW,2013-05-18 04:36:00,
2013-05-17 23:41:00,58.0,54.7,29.83,NE,45,2.7,6.0,89,0.00,,,0.43,WUHU216HW,2013-05-18 04:41:00,
2013-05-17 23:46:00,57.8,54.5,29.83,ENE,68,2.5,4.7,89,0.00,,,0.43,WUHU216HW,2013-05-18 04:46:00,
2013-05-17 23:51:00,57.8,54.5,29.83,East,90,3.8,3.8,89,0.00,,,0.43,WUHU216HW,2013-05-18 04:51:00,
2013-05-17 23:56:00,57.8,54.5,29.84,ESE,113,4.7,4.7,89,0.00,,,0.43,WUHU216HW,2013-05-18 04:56:00,